{"data":{"norad_id":60724,"epoch":"2026-09-21T03:47:46.696704Z","epoch_age_seconds":131595,"freshness":"FRESH","line1":"1 60724U 24152E   26264.15817936 -.00000378  00000+0  17364-5 0  9997","line2":"2 60724  53.1583 232.8135 0000811  99.8576 260.2534 15.69705228119530","mean_motion":15.69705228,"eccentricity":8.11e-5,"inclination_deg":53.1583,"raan_deg":232.8135,"arg_perigee_deg":99.8576,"mean_anomaly_deg":260.2534,"bstar":1.7364e-6,"rev_number":11953,"period_min":91.736969101819,"perigee_km":359.19396423412,"apogee_km":360.28684794939,"semimajor_km":6737.8774060918,"source":"CELESTRAK","updated_at":"2026-09-22T09:00:49.277634Z"}}